Time,TemperatureF,DewpointF,PressureIn,WindDirection,WindDirectionDegrees,WindSpeedMPH,WindSpeedGustMPH,Humidity,HourlyPrecipIn,Conditions,Clouds,dailyrainin,SoftwareType,DateUTC
2013-06-04 00:02:00,46.0,28.0,29.98,North,-999,-999.0,-999.0,50,-99.99,,,-99.99,,2013-06-04 06:02:00,
2013-06-04 00:12:00,45.0,27.0,29.98,North,-999,-999.0,-999.0,50,-99.99,,,-99.99,,2013-06-04 06:12:00,
2013-06-04 00:22:00,45.0,28.0,29.98,North,-999,-999.0,-999.0,51,-99.99,,,-99.99,,2013-06-04 06:22:00,
2013-06-04 00:32:00,44.0,28.0,29.98,North,-999,-999.0,-999.0,54,-99.99,,,-99.99,,2013-06-04 06:32:00,
2013-06-04 00:42:00,44.0,28.0,29.98,North,-999,-999.0,-999.0,54,-99.99,,,-99.99,,2013-06-04 06:42:00,
2013-06-04 00:52:00,43.0,28.0,29.98,North,-999,-999.0,-999.0,56,-99.99,,,-99.99,,2013-06-04 06:52:00,
2013-06-04 01:02:00,43.0,28.0,29.98,North,-999,-999.0,-999.0,56,-99.99,,,-99.99,,2013-06-04 07:02:00,
2013-06-04 01:12:00,43.0,29.0,29.98,North,-999,-999.0,-999.0,58,-99.99,,,-99.99,,2013-06-04 07:12:00,
2013-06-04 01:22:00,43.0,28.0,29.98,North,-999,-999.0,-999.0,56,-99.99,,,-99.99,,2013-06-04 07:22:00,
2013-06-04 01:32:00,43.0,28.0,29.98,North,-999,-999.0,-999.0,56,-99.99,,,-99.99,,2013-06-04 07:32:00,
2013-06-04 01:42:00,42.0,28.0,29.99,North,-999,-999.0,-999.0,58,-99.99,,,-99.99,,2013-06-04 07:42:00,
2013-06-04 01:52:00,42.0,30.0,29.98,North,-999,-999.0,-999.0,61,-99.99,,,-99.99,,2013-06-04 07:52:00,
2013-06-04 02:02:00,42.0,30.0,29.98,North,-999,-999.0,-999.0,61,-99.99,,,-99.99,,2013-06-04 08:02:00,
2013-06-04 02:12:00,42.0,30.0,29.99,North,-999,-999.0,-999.0,62,-99.99,,,-99.99,,2013-06-04 08:12:00,
2013-06-04 02:22:00,42.0,29.0,29.98,North,-999,-999.0,-999.0,60,-99.99,,,-99.99,,2013-06-04 08:22:00,
2013-06-04 02:32:00,42.0,30.0,29.98,North,-999,-999.0,-999.0,63,-99.99,,,-99.99,,2013-06-04 08:32:00,
2013-06-04 02:42:00,42.0,30.0,29.98,North,-999,-999.0,-999.0,63,-99.99,,,-99.99,,2013-06-04 08:42:00,
2013-06-04 02:52:00,41.0,29.0,29.98,North,-999,-999.0,-999.0,63,-99.99,,,-99.99,,2013-06-04 08:52:00,
2013-06-04 03:02:00,41.0,29.0,29.98,North,-999,-999.0,-999.0,63,-99.99,,,-99.99,,2013-06-04 09:02:00,
2013-06-04 03:12:00,39.0,30.0,29.98,North,-999,-999.0,-999.0,71,-99.99,,,-99.99,,2013-06-04 09:12:00,
2013-06-04 03:22:00,39.0,31.0,29.98,North,-999,-999.0,-999.0,72,-99.99,,,-99.99,,2013-06-04 09:22:00,
2013-06-04 03:32:00,39.0,31.0,29.98,North,-999,-999.0,-999.0,72,-99.99,,,-99.99,,2013-06-04 09:32:00,
2013-06-04 03:42:00,39.0,30.0,29.98,North,-999,-999.0,-999.0,69,-99.99,,,-99.99,,2013-06-04 09:42:00,
2013-06-04 03:53:00,40.0,30.0,29.98,North,-999,-999.0,-999.0,68,-99.99,,,-99.99,,2013-06-04 09:53:00,
2013-06-04 04:02:00,40.0,30.0,29.98,North,-999,-999.0,-999.0,68,-99.99,,,-99.99,,2013-06-04 10:02:00,
2013-06-04 04:12:00,40.0,29.0,29.99,North,-999,-999.0,-999.0,65,-99.99,,,-99.99,,2013-06-04 10:12:00,
2013-06-04 04:22:00,41.0,30.0,29.98,North,-999,-999.0,-999.0,64,-99.99,,,-99.99,,2013-06-04 10:22:00,
2013-06-04 04:32:00,40.0,30.0,29.99,North,-999,-999.0,-999.0,68,-99.99,,,-99.99,,2013-06-04 10:32:00,
2013-06-04 04:42:00,40.0,30.0,29.99,North,-999,-999.0,-999.0,68,-99.99,,,-99.99,,2013-06-04 10:42:00,
2013-06-04 04:53:00,40.0,31.0,29.99,North,-999,-999.0,-999.0,71,-99.99,,,-99.99,,2013-06-04 10:53:00,
2013-06-04 05:02:00,40.0,31.0,29.99,North,-999,-999.0,-999.0,71,-99.99,,,-99.99,,2013-06-04 11:02:00,
2013-06-04 05:12:00,39.0,31.0,29.99,North,-999,-999.0,-999.0,73,-99.99,,,-99.99,,2013-06-04 11:12:00,
2013-06-04 05:22:00,39.0,31.0,30.00,North,-999,-999.0,-999.0,74,-99.99,,,-99.99,,2013-06-04 11:22:00,
2013-06-04 05:32:00,39.0,32.0,30.00,North,-999,-999.0,-999.0,77,-99.99,,,-99.99,,2013-06-04 11:32:00,
2013-06-04 05:42:00,39.0,32.0,30.00,North,-999,-999.0,-999.0,77,-99.99,,,-99.99,,2013-06-04 11:42:00,
2013-06-04 05:52:00,39.0,32.0,30.00,North,-999,-999.0,-999.0,77,-99.99,,,-99.99,,2013-06-04 11:52:00,
2013-06-04 06:02:00,39.0,32.0,30.00,North,-999,-999.0,-999.0,77,-99.99,,,-99.99,,2013-06-04 12:02:00,
2013-06-04 06:12:00,39.0,32.0,30.00,North,-999,-999.0,-999.0,77,-99.99,,,-99.99,,2013-06-04 12:12:00,
2013-06-04 06:22:00,39.0,31.0,30.01,North,-999,-999.0,-999.0,74,-99.99,,,-99.99,,2013-06-04 12:22:00,
2013-06-04 06:32:00,39.0,31.0,30.01,North,-999,-999.0,-999.0,74,-99.99,,,-99.99,,2013-06-04 12:32:00,
2013-06-04 06:42:00,39.0,32.0,30.01,North,-999,-999.0,-999.0,75,-99.99,,,-99.99,,2013-06-04 12:42:00,
2013-06-04 06:52:00,40.0,33.0,30.01,North,-999,-999.0,-999.0,76,-99.99,,,-99.99,,2013-06-04 12:52:00,
2013-06-04 07:02:00,40.0,33.0,30.01,North,-999,-999.0,-999.0,76,-99.99,,,-99.99,,2013-06-04 13:02:00,
2013-06-04 07:12:00,40.0,33.0,30.01,North,-999,-999.0,-999.0,77,-99.99,,,-99.99,,2013-06-04 13:12:00,
2013-06-04 07:22:00,40.0,33.0,30.01,North,-999,-999.0,-999.0,77,-99.99,,,-99.99,,2013-06-04 13:22:00,
2013-06-04 07:32:00,40.0,33.0,30.01,North,-999,-999.0,-999.0,77,-99.99,,,-99.99,,2013-06-04 13:32:00,
2013-06-04 07:42:00,40.0,33.0,30.02,North,-999,-999.0,-999.0,76,-99.99,,,-99.99,,2013-06-04 13:42:00,
2013-06-04 07:52:00,41.0,33.0,30.02,North,-999,-999.0,-999.0,74,-99.99,,,-99.99,,2013-06-04 13:52:00,
2013-06-04 08:02:00,41.0,33.0,30.02,North,-999,-999.0,-999.0,74,-99.99,,,-99.99,,2013-06-04 14:02:00,
2013-06-04 08:12:00,41.0,33.0,30.02,North,-999,-999.0,-999.0,73,-99.99,,,-99.99,,2013-06-04 14:12:00,
2013-06-04 08:22:00,42.0,33.0,30.02,North,-999,-999.0,-999.0,71,-99.99,,,-99.99,,2013-06-04 14:22:00,
2013-06-04 08:32:00,42.0,33.0,30.02,North,-999,-999.0,-999.0,71,-99.99,,,-99.99,,2013-06-04 14:32:00,
2013-06-04 08:42:00,43.0,34.0,30.02,North,-999,-999.0,-999.0,70,-99.99,,,-99.99,,2013-06-04 14:42:00,
2013-06-04 08:52:00,43.0,34.0,30.02,North,-999,-999.0,-999.0,70,-99.99,,,-99.99,,2013-06-04 14:52:00,
2013-06-04 09:02:00,43.0,34.0,30.02,North,-999,-999.0,-999.0,70,-99.99,,,-99.99,,2013-06-04 15:02:00,
2013-06-04 09:12:00,45.0,32.0,30.03,North,-999,-999.0,-999.0,61,-99.99,,,-99.99,,2013-06-04 15:12:00,
2013-06-04 09:22:00,47.0,32.0,30.03,North,-999,-999.0,-999.0,55,-99.99,,,-99.99,,2013-06-04 15:22:00,
2013-06-04 09:33:00,47.0,32.0,30.03,North,-999,-999.0,-999.0,56,-99.99,,,-99.99,,2013-06-04 15:33:00,
2013-06-04 09:42:00,47.0,32.0,30.03,North,-999,-999.0,-999.0,56,-99.99,,,-99.99,,2013-06-04 15:42:00,
2013-06-04 09:53:00,47.0,32.0,30.03,North,-999,-999.0,-999.0,56,-99.99,,,-99.99,,2013-06-04 15:53:00,
2013-06-04 10:03:00,47.0,32.0,30.03,North,-999,-999.0,-999.0,56,-99.99,,,-99.99,,2013-06-04 16:03:00,
2013-06-04 10:12:00,49.0,34.0,30.03,North,-999,-999.0,-999.0,55,-99.99,,,-99.99,,2013-06-04 16:12:00,
2013-06-04 10:22:00,49.0,33.0,30.03,North,-999,-999.0,-999.0,54,-99.99,,,-99.99,,2013-06-04 16:22:00,
2013-06-04 10:32:00,49.0,33.0,30.03,North,-999,-999.0,-999.0,54,-99.99,,,-99.99,,2013-06-04 16:32:00,
2013-06-04 10:42:00,49.0,33.0,30.03,North,-999,-999.0,-999.0,53,-99.99,,,-99.99,,2013-06-04 16:42:00,
2013-06-04 10:53:00,49.0,33.0,30.04,North,-999,-999.0,-999.0,53,-99.99,,,-99.99,,2013-06-04 16:53:00,
2013-06-04 11:02:00,49.0,33.0,30.04,North,-999,-999.0,-999.0,53,-99.99,,,-99.99,,2013-06-04 17:02:00,
2013-06-04 11:12:00,48.0,31.0,30.04,North,-999,-999.0,-999.0,52,-99.99,,,-99.99,,2013-06-04 17:12:00,
2013-06-04 11:22:00,52.0,32.0,30.04,North,-999,-999.0,-999.0,47,-99.99,,,-99.99,,2013-06-04 17:22:00,
2013-06-04 11:32:00,52.0,32.0,30.04,North,-999,-999.0,-999.0,47,-99.99,,,-99.99,,2013-06-04 17:32:00,
2013-06-04 11:42:00,54.0,32.0,30.04,North,-999,-999.0,-999.0,43,-99.99,,,-99.99,,2013-06-04 17:42:00,
2013-06-04 11:52:00,53.0,31.0,30.04,North,-999,-999.0,-999.0,43,-99.99,,,-99.99,,2013-06-04 17:52:00,
2013-06-04 12:02:00,53.0,31.0,30.04,North,-999,-999.0,-999.0,43,-99.99,,,-99.99,,2013-06-04 18:02:00,
2013-06-04 12:12:00,56.0,32.0,30.04,North,-999,-999.0,-999.0,40,-99.99,,,-99.99,,2013-06-04 18:12:00,
2013-06-04 12:22:00,57.0,32.0,30.03,North,-999,-999.0,-999.0,38,-99.99,,,-99.99,,2013-06-04 18:22:00,
2013-06-04 12:32:00,57.0,32.0,30.03,North,-999,-999.0,-999.0,38,-99.99,,,-99.99,,2013-06-04 18:32:00,
2013-06-04 12:42:00,58.0,31.0,30.03,North,-999,-999.0,-999.0,36,-99.99,,,-99.99,,2013-06-04 18:42:00,
2013-06-04 12:52:00,57.0,29.0,30.03,North,-999,-999.0,-999.0,34,-99.99,,,-99.99,,2013-06-04 18:52:00,
2013-06-04 13:02:00,57.0,29.0,30.03,North,-999,-999.0,-999.0,34,-99.99,,,-99.99,,2013-06-04 19:02:00,
2013-06-04 13:12:00,59.0,29.0,30.03,North,-999,-999.0,-999.0,32,-99.99,,,-99.99,,2013-06-04 19:12:00,
2013-06-04 13:22:00,59.0,27.0,30.03,North,-999,-999.0,-999.0,29,-99.99,,,-99.99,,2013-06-04 19:22:00,
2013-06-04 13:32:00,59.0,27.0,30.03,North,-999,-999.0,-999.0,29,-99.99,,,-99.99,,2013-06-04 19:32:00,
2013-06-04 13:42:00,60.0,28.0,30.03,North,-999,-999.0,-999.0,29,-99.99,,,-99.99,,2013-06-04 19:42:00,
2013-06-04 13:52:00,61.0,26.0,30.03,North,-999,-999.0,-999.0,26,-99.99,,,-99.99,,2013-06-04 19:52:00,
2013-06-04 14:02:00,61.0,26.0,30.03,North,-999,-999.0,-999.0,26,-99.99,,,-99.99,,2013-06-04 20:02:00,
2013-06-04 14:12:00,60.0,26.0,30.03,North,-999,-999.0,-999.0,27,-99.99,,,-99.99,,2013-06-04 20:12:00,
2013-06-04 14:22:00,61.0,27.0,30.04,North,-999,-999.0,-999.0,27,-99.99,,,-99.99,,2013-06-04 20:22:00,
2013-06-04 14:32:00,59.0,25.0,30.04,North,-999,-999.0,-999.0,27,-99.99,,,-99.99,,2013-06-04 20:32:00,
2013-06-04 14:42:00,59.0,25.0,30.04,North,-999,-999.0,-999.0,27,-99.99,,,-99.99,,2013-06-04 20:42:00,
2013-06-04 14:53:00,60.0,25.0,30.04,North,-999,-999.0,-999.0,26,-99.99,,,-99.99,,2013-06-04 20:53:00,
2013-06-04 15:02:00,60.0,25.0,30.04,North,-999,-999.0,-999.0,26,-99.99,,,-99.99,,2013-06-04 21:02:00,
2013-06-04 15:12:00,60.0,26.0,30.04,North,-999,-999.0,-999.0,27,-99.99,,,-99.99,,2013-06-04 21:12:00,
2013-06-04 15:22:00,63.0,28.0,30.04,North,-999,-999.0,-999.0,26,-99.99,,,-99.99,,2013-06-04 21:22:00,
2013-06-04 15:33:00,63.0,28.0,30.04,North,-999,-999.0,-999.0,26,-99.99,,,-99.99,,2013-06-04 21:33:00,
2013-06-04 15:42:00,60.0,24.0,30.05,North,-999,-999.0,-999.0,25,-99.99,,,-99.99,,2013-06-04 21:42:00,
2013-06-04 15:53:00,61.0,24.0,30.04,North,-999,-999.0,-999.0,24,-99.99,,,-99.99,,2013-06-04 21:53:00,
2013-06-04 16:02:00,61.0,24.0,30.04,North,-999,-999.0,-999.0,24,-99.99,,,-99.99,,2013-06-04 22:02:00,
2013-06-04 16:12:00,61.0,22.0,30.05,North,-999,-999.0,-999.0,22,-99.99,,,-99.99,,2013-06-04 22:12:00,
2013-06-04 16:22:00,60.0,20.0,30.05,North,-999,-999.0,-999.0,21,-99.99,,,-99.99,,2013-06-04 22:22:00,
2013-06-04 16:32:00,59.0,21.0,30.05,North,-999,-999.0,-999.0,23,-99.99,,,-99.99,,2013-06-04 22:32:00,
2013-06-04 16:42:00,59.0,21.0,30.05,North,-999,-999.0,-999.0,23,-99.99,,,-99.99,,2013-06-04 22:42:00,
2013-06-04 16:52:00,59.0,21.0,30.05,North,-999,-999.0,-999.0,23,-99.99,,,-99.99,,2013-06-04 22:52:00,
2013-06-04 17:02:00,59.0,21.0,30.05,North,-999,-999.0,-999.0,23,-99.99,,,-99.99,,2013-06-04 23:02:00,
2013-06-04 17:12:00,60.0,25.0,30.05,North,-999,-999.0,-999.0,26,-99.99,,,-99.99,,2013-06-04 23:12:00,
2013-06-04 17:22:00,59.0,26.0,30.05,North,-999,-999.0,-999.0,28,-99.99,,,-99.99,,2013-06-04 23:22:00,
2013-06-04 17:32:00,59.0,26.0,30.05,North,-999,-999.0,-999.0,28,-99.99,,,-99.99,,2013-06-04 23:32:00,
2013-06-04 17:42:00,58.0,26.0,30.05,North,-999,-999.0,-999.0,29,-99.99,,,-99.99,,2013-06-04 23:42:00,
2013-06-04 17:52:00,56.0,25.0,30.05,North,-999,-999.0,-999.0,30,-99.99,,,-99.99,,2013-06-04 23:52:00,
2013-06-04 18:02:00,56.0,25.0,30.05,North,-999,-999.0,-999.0,30,-99.99,,,-99.99,,2013-06-05 00:02:00,
2013-06-04 18:12:00,56.0,26.0,30.05,North,-999,-999.0,-999.0,31,-99.99,,,-99.99,,2013-06-05 00:12:00,
2013-06-04 18:22:00,57.0,27.0,30.05,North,-999,-999.0,-999.0,31,-99.99,,,-99.99,,2013-06-05 00:22:00,
2013-06-04 18:32:00,57.0,27.0,30.05,North,-999,-999.0,-999.0,31,-99.99,,,-99.99,,2013-06-05 00:32:00,
2013-06-04 18:42:00,57.0,27.0,30.05,North,-999,-999.0,-999.0,31,-99.99,,,-99.99,,2013-06-05 00:42:00,
2013-06-04 18:52:00,57.0,27.0,30.05,North,-999,-999.0,-999.0,31,-99.99,,,-99.99,,2013-06-05 00:52:00,
2013-06-04 19:02:00,57.0,27.0,30.05,North,-999,-999.0,-999.0,31,-99.99,,,-99.99,,2013-06-05 01:02:00,
2013-06-04 19:12:00,57.0,27.0,30.06,North,-999,-999.0,-999.0,32,-99.99,,,-99.99,,2013-06-05 01:12:00,
2013-06-04 19:22:00,56.0,26.0,30.06,North,-999,-999.0,-999.0,31,-99.99,,,-99.99,,2013-06-05 01:22:00,
2013-06-04 19:32:00,54.0,27.0,30.06,North,-999,-999.0,-999.0,35,-99.99,,,-99.99,,2013-06-05 01:32:00,
2013-06-04 19:42:00,54.0,27.0,30.06,North,-999,-999.0,-999.0,35,-99.99,,,-99.99,,2013-06-05 01:42:00,
2013-06-04 19:52:00,54.0,27.0,30.06,North,-999,-999.0,-999.0,35,-99.99,,,-99.99,,2013-06-05 01:52:00,
2013-06-04 20:02:00,54.0,27.0,30.06,North,-999,-999.0,-999.0,35,-99.99,,,-99.99,,2013-06-05 02:02:00,
2013-06-04 20:12:00,52.0,28.0,30.07,North,-999,-999.0,-999.0,40,-99.99,,,-99.99,,2013-06-05 02:12:00,
2013-06-04 20:22:00,51.0,28.0,30.07,North,-999,-999.0,-999.0,41,-99.99,,,-99.99,,2013-06-05 02:22:00,
2013-06-04 20:32:00,51.0,29.0,30.07,North,-999,-999.0,-999.0,42,-99.99,,,-99.99,,2013-06-05 02:32:00,
2013-06-04 20:42:00,51.0,29.0,30.07,North,-999,-999.0,-999.0,42,-99.99,,,-99.99,,2013-06-05 02:42:00,
2013-06-04 20:52:00,51.0,29.0,30.07,North,-999,-999.0,-999.0,42,-99.99,,,-99.99,,2013-06-05 02:52:00,
2013-06-04 21:02:00,51.0,29.0,30.07,North,-999,-999.0,-999.0,42,-99.99,,,-99.99,,2013-06-05 03:02:00,
2013-06-04 21:12:00,50.0,28.0,30.07,North,-999,-999.0,-999.0,43,-99.99,,,-99.99,,2013-06-05 03:12:00,
2013-06-04 21:22:00,49.0,29.0,30.08,North,-999,-999.0,-999.0,46,-99.99,,,-99.99,,2013-06-05 03:22:00,
2013-06-04 21:33:00,49.0,29.0,30.08,North,-999,-999.0,-999.0,46,-99.99,,,-99.99,,2013-06-05 03:33:00,
2013-06-04 21:43:00,49.0,28.0,30.08,North,-999,-999.0,-999.0,44,-99.99,,,-99.99,,2013-06-05 03:43:00,
2013-06-04 21:53:00,49.0,28.0,30.08,North,-999,-999.0,-999.0,44,-99.99,,,-99.99,,2013-06-05 03:53:00,
2013-06-04 22:02:00,49.0,28.0,30.08,North,-999,-999.0,-999.0,44,-99.99,,,-99.99,,2013-06-05 04:02:00,
2013-06-04 22:12:00,49.0,27.0,30.08,North,-999,-999.0,-999.0,42,-99.99,,,-99.99,,2013-06-05 04:12:00,
2013-06-04 22:22:00,48.0,27.0,30.09,North,-999,-999.0,-999.0,44,-99.99,,,-99.99,,2013-06-05 04:22:00,
2013-06-04 22:32:00,48.0,27.0,30.09,North,-999,-999.0,-999.0,44,-99.99,,,-99.99,,2013-06-05 04:32:00,
2013-06-04 22:42:00,48.0,27.0,30.09,North,-999,-999.0,-999.0,44,-99.99,,,-99.99,,2013-06-05 04:42:00,
2013-06-04 22:53:00,48.0,27.0,30.09,North,-999,-999.0,-999.0,44,-99.99,,,-99.99,,2013-06-05 04:53:00,
2013-06-04 23:02:00,48.0,27.0,30.09,North,-999,-999.0,-999.0,44,-99.99,,,-99.99,,2013-06-05 05:02:00,
2013-06-04 23:12:00,47.0,27.0,30.10,North,-999,-999.0,-999.0,45,-99.99,,,-99.99,,2013-06-05 05:12:00,
2013-06-04 23:22:00,49.0,27.0,30.10,North,-999,-999.0,-999.0,43,-99.99,,,-99.99,,2013-06-05 05:22:00,
2013-06-04 23:32:00,49.0,27.0,30.10,North,-999,-999.0,-999.0,43,-99.99,,,-99.99,,2013-06-05 05:32:00,
2013-06-04 23:42:00,49.0,27.0,30.10,North,-999,-999.0,-999.0,43,-99.99,,,-99.99,,2013-06-05 05:42:00,
2013-06-04 23:52:00,49.0,28.0,30.10,North,-999,-999.0,-999.0,44,-99.99,,,-99.99,,2013-06-05 05:52:00,